Theta_e
346 342 341 338 338 341 345 347 346 342 339 340 339 335 333 332 332 333 334 329 320 316 318 320 319 323 328 329 329 334 339 339 339 340 341 342 344 344 344 343 343 344 344 344 344 344 344 343 343 343 342 341 339 340 339 337 337 338 337 337 337 338 338 338 339 339 339 339 339 337 338 339 338 338 337 336 335 332 330 331 332 332 333 334 334
345 343 343 339 337 340 344 348 346 343 341 341 339 334 333 333 334 334 334 328 319 317 321 322 322 325 329 330 333 337 339 339 339 340 342 343 344 344 344 344 344 344 344 344 343 343 343 342 342 342 341 339 339 340 338 337 336 336 334 335 336 336 336 337 337 338 338 338 336 334 334 336 335 335 334 332 333 333 333 332 330 331 333 333 332
341 343 345 342 339 340 342 347 346 344 342 342 338 334 333 333 334 334 334 327 318 320 323 324 324 325 328 333 336 339 339 341 341 342 343 344 344 344 344 344 344 344 344 344 343 343 343 342 342 342 341 338 337 337 337 336 335 333 332 334 335 336 336 336 337 336 335 335 334 331 332 335 336 335 334 334 334 334 334 333 332 332 333 333 331
340 342 346 346 343 341 342 346 346 345 343 342 337 334 333 334 335 334 333 325 319 322 324 329 330 328 332 337 338 340 341 342 342 343 344 344 344 344 344 344 344 344 344 343 343 343 343 342 342 342 341 339 337 336 336 335 333 330 331 333 334 336 337 337 337 336 334 334 332 329 327 331 336 336 335 336 335 334 333 332 332 331 331 331 330
340 342 346 348 346 344 344 345 346 346 344 340 336 333 334 335 335 335 332 323 319 323 327 332 335 335 337 340 340 341 343 342 342 343 344 344 345 344 344 345 344 344 343 343 343 343 342 342 341 339 335 335 334 335 335 333 330 326 328 332 334 336 338 338 339 337 335 335 334 330 326 327 333 335 335 335 335 335 333 330 330 330 330 330 330
341 343 346 347 347 347 345 345 345 345 343 339 335 334 335 335 335 336 332 322 321 325 328 334 337 338 339 340 341 342 343 342 342 344 344 344 345 345 345 344 344 344 343 343 342 341 341 340 337 332 328 327 327 329 330 331 328 323 325 332 334 336 337 338 339 339 337 337 335 332 330 329 331 334 334 334 334 334 333 331 330 330 330 330 329
341 343 345 346 346 347 347 345 344 344 343 338 335 334 335 336 336 336 331 321 322 327 329 335 339 340 340 340 341 342 342 342 343 344 344 345 345 345 344 344 344 343 342 341 339 338 338 338 335 332 330 328 325 323 322 325 326 324 325 331 335 335 336 336 338 338 338 340 336 333 334 332 333 335 335 334 333 333 334 332 332 331 331 329 329
343 344 344 344 346 347 346 345 345 344 342 338 335 336 336 337 337 336 330 319 321 327 329 335 340 341 341 340 340 341 342 342 343 344 344 345 344 344 343 343 343 342 342 339 338 338 338 338 337 335 333 330 325 321 317 318 322 323 324 327 330 331 332 332 333 334 336 337 336 333 334 334 335 336 335 334 333 331 331 332 331 331 331 330 330
344 343 342 343 346 347 346 345 345 343 341 337 336 336 337 337 336 335 329 318 318 325 329 334 339 341 340 341 340 341 341 342 343 343 344 344 343 344 343 343 342 342 340 338 337 337 337 337 336 335 333 328 321 317 313 315 319 322 324 325 327 329 331 332 333 333 333 334 334 332 332 334 335 335 334 333 331 328 328 330 331 331 331 330 330
344 343 341 342 346 347 346 345 344 342 340 337 337 337 337 337 336 334 326 317 315 321 329 333 338 340 340 340 339 340 341 341 342 342 343 343 343 343 342 341 341 340 338 338 337 335 336 336 335 333 328 322 316 313 313 316 320 323 326 328 330 331 333 333 332 332 332 332 333 331 330 332 334 333 332 331 331 329 329 331 332 332 332 331 330
344 344 342 341 345 346 345 344 343 341 339 338 338 337 337 337 336 332 323 316 314 320 330 334 338 340 340 339 338 339 341 342 342 341 342 342 343 342 341 340 338 337 336 335 334 335 334 333 332 327 321 316 313 313 316 320 323 326 329 331 332 333 333 332 331 332 331 331 332 331 330 332 334 333 331 330 330 330 331 331 333 333 332 332 331
345 345 342 340 343 344 344 343 342 340 339 339 338 338 337 337 334 328 320 316 316 322 332 335 337 339 339 339 338 339 340 341 340 340 342 342 342 341 339 338 335 333 331 329 329 332 331 329 325 318 315 314 314 318 321 324 326 330 331 333 333 333 333 332 331 331 331 331 331 332 331 332 332 332 331 331 331 331 331 331 332 332 332 332 331
345 345 344 341 342 344 344 342 342 341 340 339 339 338 337 335 331 326 321 320 320 325 333 336 337 338 339 338 338 338 338 340 340 340 340 342 341 340 339 337 332 330 329 328 328 329 330 327 320 314 314 314 319 325 327 328 330 332 332 333 334 335 333 332 332 331 331 331 330 330 331 331 331 331 332 332 332 331 330 330 331 331 332 332 331
345 344 344 342 342 344 343 343 342 341 341 339 339 338 336 334 329 326 326 329 329 328 332 335 336 338 338 338 338 337 338 338 338 339 340 340 340 339 339 335 331 329 328 328 328 330 329 326 317 313 314 317 326 330 331 331 332 332 333 333 333 334 333 332 333 332 331 329 329 329 330 330 331 331 332 333 332 332 331 331 331 331 331 331 330
345 344 342 342 342 342 342 342 341 341 340 339 338 337 335 333 329 329 334 336 335 332 331 332 334 336 337 337 337 337 337 338 337 337 339 339 339 338 337 334 330 329 328 327 328 330 329 326 318 313 314 322 330 331 331 332 332 333 333 333 332 332 333 332 332 331 330 328 329 330 330 330 331 331 331 333 333 332 331 331 332 331 330 330 329
345 343 340 341 341 340 341 340 339 338 338 337 336 336 334 331 329 333 338 339 337 335 334 333 333 335 337 337 337 337 337 337 337 336 337 338 337 336 334 332 329 330 328 327 328 330 329 326 319 312 315 325 331 331 331 332 332 333 332 333 334 333 332 332 331 330 329 328 329 331 332 333 333 331 330 332 332 331 331 331 331 330 329 328 328
344 341 339 340 340 338 339 338 337 336 335 334 333 333 331 330 329 334 338 339 337 335 335 336 336 336 336 337 337 337 338 338 337 336 337 337 335 333 333 330 329 330 330 329 329 330 330 326 319 312 315 325 331 331 331 332 332 332 332 333 334 333 332 331 331 330 329 330 331 332 333 334 333 330 329 330 331 331 331 331 330 330 329 328 328
343 341 340 340 339 337 337 337 337 336 334 334 333 331 331 330 331 335 338 339 338 336 336 337 337 336 335 336 337 337 338 338 338 337 337 336 334 333 333 330 329 331 331 331 330 330 330 327 320 313 314 323 330 331 331 332 332 332 332 333 334 334 333 333 333 331 331 329 330 332 333 332 331 330 329 329 329 329 330 330 329 328 328 328 327
343 341 340 340 338 336 337 337 337 336 334 334 333 332 333 333 333 335 337 339 338 336 336 336 337 337 336 336 336 336 337 337 338 338 336 335 334 334 333 330 329 331 332 331 330 331 330 327 321 314 312 319 328 330 332 332 331 332 332 332 335 335 333 333 332 332 331 328 329 331 331 331 330 330 330 330 329 329 329 329 328 328 328 328 327
342 340 341 340 338 337 338 337 337 336 334 334 332 334 336 335 334 335 336 337 338 338 337 336 336 338 337 336 334 335 335 336 336 336 336 334 334 335 334 331 329 330 331 332 332 330 330 327 321 315 312 315 325 330 331 332 333 333 332 332 334 334 333 333 332 331 329 326 328 330 330 330 330 330 330 329 329 329 329 328 328 327 327 327 326
343 341 341 340 339 339 339 337 337 336 334 334 335 336 336 335 336 336 336 336 336 337 337 335 336 337 337 336 333 333 333 333 332 333 334 334 334 335 335 332 330 329 330 331 332 331 330 327 321 316 314 319 327 331 332 334 334 334 334 334 335 334 333 333 332 331 328 325 327 329 330 329 329 329 329 328 328 328 327 327 327 326 326 326 326
344 342 341 340 340 339 338 338 338 336 335 336 337 336 335 335 336 336 336 335 335 337 337 337 337 337 337 335 333 334 334 332 330 329 329 332 335 334 334 333 331 329 329 331 332 331 330 328 324 317 318 327 331 332 333 334 334 335 335 336 335 334 333 333 333 331 329 326 326 328 329 329 329 328 328 328 327 326 326 326 326 325 326 326 326
345 344 342 341 341 339 339 340 339 338 339 338 337 336 335 335 335 336 336 335 335 337 338 338 338 336 335 335 335 337 338 335 333 331 327 327 332 335 333 333 332 329 328 330 331 332 331 329 326 319 321 329 331 333 333 333 334 334 334 335 335 334 333 334 333 332 329 325 325 327 328 328 328 328 328 328 327 326 326 325 325 324 325 325 324
345 344 343 341 340 339 340 341 340 340 341 340 337 335 334 335 336 336 337 336 334 336 338 337 337 337 336 336 336 339 339 337 336 338 334 328 328 332 332 332 332 330 328 329 331 332 331 330 327 321 322 328 331 332 331 333 334 333 334 335 335 334 333 333 332 331 328 325 324 327 328 328 329 328 328 328 327 326 325 325 324 324 325 325 324
345 345 343 342 341 341 342 341 340 341 342 341 338 335 336 336 336 338 338 337 335 335 337 337 338 338 338 337 336 339 340 338 338 338 339 335 330 328 328 330 332 330 329 328 330 332 332 330 328 324 323 327 330 330 330 333 335 335 333 334 336 334 333 332 332 331 329 326 325 327 328 329 329 328 328 328 328 327 325 325 325 325 325 324 325
343 344 344 343 343 343 342 342 341 342 343 342 339 337 339 339 337 339 339 337 336 336 336 336 338 339 339 338 337 339 340 339 337 337 338 339 337 331 326 326 331 330 328 328 329 331 332 331 328 327 329 331 333 334 334 333 334 335 332 333 335 334 333 332 332 331 329 326 325 326 328 329 328 328 328 328 327 327 325 325 325 325 325 324 324
342 344 343 342 342 343 343 343 342 343 343 342 340 339 340 341 340 339 338 338 338 338 336 335 336 337 337 338 338 338 339 339 338 338 338 338 338 336 329 322 327 331 328 328 329 330 332 332 329 328 332 335 336 337 337 335 333 334 332 332 334 333 333 332 332 331 329 326 324 326 328 328 327 327 328 327 327 327 326 326 326 325 325 325 325
342 343 342 342 342 343 343 343 342 342 343 342 341 341 341 342 341 339 339 339 339 339 337 337 337 337 337 338 338 339 339 339 338 338 338 339 337 337 334 323 323 330 329 327 328 330 332 333 332 329 330 334 337 337 338 336 334 335 333 331 333 333 332 332 331 331 330 328 325 326 328 328 327 327 328 328 328 328 327 326 326 326 326 326 326
343 343 342 342 342 342 342 342 342 342 342 342 341 341 341 342 341 340 339 339 339 339 338 339 339 339 339 339 339 339 339 339 339 339 338 339 337 336 336 329 325 328 330 328 327 330 333 334 336 334 331 332 335 337 336 334 331 334 333 330 333 332 332 332 331 331 331 329 325 325 327 328 327 328 328 329 329 328 327 326 326 326 326 325 325
343 343 342 341 342 342 342 342 342 342 342 342 341 341 342 342 341 340 339 339 339 338 338 339 339 339 340 339 339 339 339 339 339 339 338 338 337 336 335 334 332 330 329 328 327 331 335 335 337 338 335 333 335 336 335 333 331 333 332 330 332 333 332 332 332 332 332 331 327 324 325 326 327 328 329 329 329 329 327 326 326 326 325 325 324
343 343 342 341 341 341 342 342 342 342 342 342 341 341 341 341 341 341 340 340 339 339 338 338 338 339 339 339 340 339 339 339 338 339 339 338 336 337 335 334 335 334 332 330 328 329 335 336 335 337 337 337 337 335 334 332 331 332 331 331 333 333 333 333 333 333 332 332 328 323 323 325 327 328 329 329 329 329 327 326 325 325 325 324 324
344 343 343 342 341 341 342 342 342 342 342 341 341 341 341 341 341 341 340 340 339 339 338 338 338 338 339 339 339 340 339 338 337 337 338 338 337 337 336 334 335 336 335 334 331 328 333 337 335 335 337 338 337 335 333 332 332 331 330 332 333 333 334 334 333 333 332 331 329 325 324 324 326 328 329 328 328 328 327 326 325 325 326 325 324
344 344 343 343 342 342 342 342 342 341 341 341 340 340 341 341 340 340 340 339 339 338 338 337 338 338 337 338 338 339 339 338 337 337 338 338 338 337 336 335 335 335 334 335 333 329 331 335 335 334 335 337 337 335 333 333 332 330 330 332 333 333 334 334 333 333 332 331 330 328 327 324 326 328 328 328 328 326 326 327 326 326 326 324 324
344 343 343 343 342 342 341 341 341 341 341 340 340 340 340 339 339 339 339 339 338 338 338 337 338 338 337 336 338 338 338 338 338 338 337 337 338 337 336 335 335 335 334 334 332 329 329 332 333 334 335 337 336 334 334 334 332 331 331 333 333 334 334 334 334 333 332 332 331 330 329 325 324 327 327 327 327 325 326 328 326 325 325 324 323
344 344 344 343 342 342 342 341 341 341 341 340 340 340 339 339 338 339 338 338 339 337 337 337 338 337 337 337 337 338 338 338 339 338 337 337 337 337 336 336 335 335 335 334 333 331 330 330 332 333 334 336 335 335 335 334 332 333 333 333 334 334 334 334 334 333 332 332 331 331 331 327 323 324 325 326 326 325 325 327 326 324 324 323 323
344 343 343 343 342 342 341 342 341 341 340 340 339 339 339 339 338 339 338 338 338 338 338 338 338 338 338 338 338 338 338 338 339 338 337 337 338 337 337 336 336 335 335 335 335 334 333 332 332 332 333 334 334 335 336 334 334 334 333 333 334 334 334 335 334 333 333 332 332 331 332 330 327 326 324 323 325 324 324 327 326 324 323 323 323
344 343 343 343 342 342 341 340 340 340 340 339 339 339 340 340 339 338 338 337 338 339 338 338 338 338 337 337 337 337 338 338 338 338 338 337 338 338 338 337 336 335 335 335 335 334 334 332 332 333 334 334 334 334 334 333 334 334 333 334 334 334 335 334 334 333 333 332 332 332 332 331 329 328 327 323 320 321 323 326 325 323 323 323 323
343 343 343 343 342 342 341 340 341 341 340 340 340 339 339 339 339 339 338 337 338 338 337 337 338 337 337 337 336 336 336 337 338 338 339 338 337 337 337 337 336 336 335 335 334 334 334 333 332 333 334 334 333 333 332 332 334 333 332 334 334 335 334 334 334 334 333 332 332 332 332 331 330 329 330 327 321 319 322 325 325 322 323 324 323
343 342 343 343 342 342 342 341 341 341 341 340 339 339 339 339 338 338 338 338 338 338 338 338 338 338 337 337 336 336 336 336 337 337 338 338 337 337 336 337 337 337 337 336 335 335 334 334 334 333 334 333 332 332 332 332 333 332 332 334 334 335 334 334 334 334 333 332 332 332 332 331 331 330 331 330 326 321 321 323 323 320 322 324 323
342 342 342 342 342 342 342 341 341 340 339 339 339 339 339 339 338 338 338 338 338 339 339 340 339 338 338 337 337 336 336 336 336 336 337 337 337 336 336 336 336 337 338 337 336 335 334 335 336 334 333 333 332 332 333 332 332 332 333 336 335 335 335 334 334 334 333 333 332 332 332 331 331 331 330 330 329 322 317 319 318 316 321 323 322
340 340 340 341 341 341 341 341 340 340 339 339 339 339 339 339 338 338 338 338 338 338 339 339 339 338 338 338 338 337 336 336 336 336 336 336 336 336 336 335 335 336 338 338 336 335 335 335 335 334 333 333 332 332 332 332 332 334 335 336 335 335 335 334 334 333 333 333 333 331 332 332 331 331 330 330 329 323 315 315 316 317 321 322 323
339 338 338 339 339 340 340 339 339 339 340 340 340 339 339 339 338 338 338 338 338 338 338 339 339 339 339 339 339 338 338 336 335 335 335 336 336 336 335 335 336 336 337 336 336 336 335 335 334 333 333 333 333 333 332 331 331 333 334 335 333 332 333 334 334 334 332 332 332 331 331 332 332 331 330 330 329 324 318 317 320 323 324 323 324
339 339 339 340 339 340 339 339 339 339 340 340 340 339 339 340 339 339 339 339 339 338 339 339 339 339 339 339 339 338 338 337 336 335 335 335 336 336 335 335 336 335 336 336 336 336 336 335 333 332 332 332 333 333 332 331 330 331 331 333 333 332 333 333 333 334 333 332 332 332 331 332 332 331 331 330 329 326 322 321 325 326 326 325 326
338 338 339 339 339 340 339 339 339 339 339 339 339 339 338 339 339 339 339 338 337 337 337 337 337 338 338 339 338 338 337 336 336 335 335 335 335 335 335 335 335 335 335 335 335 336 336 336 334 334 333 333 333 333 332 332 331 331 330 333 333 333 336 335 332 333 333 333 333 332 332 331 331 331 331 330 329 327 324 324 327 328 327 327 326
337 337 337 338 338 338 338 338 338 339 338 337 338 338 337 338 338 338 338 338 337 337 337 337 337 338 338 338 338 338 337 336 336 336 335 334 335 335 335 335 335 335 335 335 335 335 336 336 335 335 334 334 334 332 332 332 331 331 331 333 333 334 338 335 332 333 333 333 333 332 332 331 331 332 332 331 330 329 327 326 327 329 329 328 328
337 337 337 337 337 337 337 337 337 337 337 337 337 337 337 338 338 338 338 338 338 338 338 337 338 338 338 338 339 338 338 338 337 336 335 334 335 335 335 335 334 335 335 334 334 335 335 335 335 335 335 334 334 333 332 331 331 332 331 332 333 334 335 334 334 335 334 332 332 332 332 332 331 332 332 331 330 330 329 328 327 329 330 329 329
335 336 336 336 336 337 337 337 337 337 337 337 337 337 337 338 338 338 337 337 337 337 337 337 337 338 338 338 339 339 338 338 338 337 335 335 336 335 335 334 334 334 335 334 334 334 335 335 335 335 335 335 334 333 332 331 331 332 332 331 332 332 332 333 335 337 335 334 333 332 332 332 331 331 332 331 330 331 330 329 329 329 329 330 330
331 332 332 332 332 333 334 334 334 334 334 335 336 336 336 337 337 337 337 336 336 337 338 337 337 338 338 338 338 338 338 337 338 337 336 336 336 335 335 334 333 334 335 334 334 334 334 334 334 335 335 334 334 334 333 332 331 331 332 332 332 332 331 332 333 335 335 335 333 332 332 331 331 331 332 331 330 330 330 330 329 329 329 329 330
329 329 329 329 330 330 330 330 330 331 331 332 332 333 334 334 335 335 335 335 335 336 336 337 337 337 337 337 337 337 336 336 336 336 336 336 335 335 334 334 333 334 335 335 334 334 334 334 334 334 335 334 334 334 332 332 332 333 333 333 332 332 331 331 332 332 333 334 334 332 331 330 330 331 332 331 331 331 329 330 329 329 329 329 329
327 327 327 327 327 328 328 328 327 328 328 328 329 330 331 331 331 332 333 333 333 334 335 335 336 336 336 336 336 336 336 336 335 335 335 335 335 335 334 334 333 334 335 335 335 334 334 334 334 334 334 334 334 334 333 332 333 333 334 334 334 333 331 331 333 332 331 332 334 332 330 331 330 330 331 331 331 331 330 330 330 330 330 330 330
325 325 326 325 326 326 327 326 325 326 326 326 327 327 328 329 329 330 330 330 331 332 333 333 334 335 336 336 336 335 335 335 334 335 334 334 333 334 334 333 333 334 335 335 335 335 334 334 334 334 334 334 334 334 333 333 333 333 334 334 334 333 332 332 333 332 331 331 332 332 330 331 331 330 331 331 331 330 330 330 330 330 330 330 330
Wind_Speed
19 20 20 17 16 16 15 15 16 17 18 18 18 18 17 16 15 13 13 13 13 14 15 17 19 20 21 20 19 19 18 16 16 15 15 15 14 15 16 16 16 16 16 17 17 17 17 17 17 17 16 16 18 18 18 19 21 21 21 21 20 19 18 18 18 19 20 21 20 20 20 19 19 19 18 17 16 16 16 17 17 19 19 18 17
21 20 20 18 17 16 16 15 16 17 18 18 19 18 17 16 14 13 13 13 13 14 15 18 20 21 21 20 19 18 17 16 16 15 15 15 15 16 16 16 16 16 16 16 16 16 16 16 16 16 16 16 18 18 19 21 22 22 21 21 20 18 17 17 17 18 18 19 20 20 20 20 19 19 18 17 17 17 17 16 16 18 18 17 17
25 22 20 18 17 17 16 16 16 17 18 19 19 18 17 16 14 13 12 13 14 15 16 19 20 19 20 19 19 18 17 16 15 15 15 16 16 16 17 17 17 16 16 16 16 16 16 16 16 15 15 16 18 18 19 20 21 21 21 21 20 18 17 17 17 17 18 18 18 18 19 20 19 18 18 17 18 18 17 17 16 17 17 17 17
27 24 21 19 18 17 17 17 17 17 18 19 19 19 18 16 14 13 12 13 15 16 17 20 20 19 19 19 19 19 17 15 14 15 16 16 17 17 16 16 16 16 16 16 16 15 15 15 15 14 14 15 17 18 18 19 19 18 18 19 20 19 18 17 17 18 18 18 16 16 18 19 19 17 17 17 17 18 18 17 16 16 17 17 17
28 24 22 20 20 18 17 18 17 18 19 20 20 19 18 15 14 13 13 14 15 16 17 20 20 19 19 18 18 18 16 14 15 16 17 17 16 16 16 16 16 16 16 16 15 15 14 13 13 12 13 14 15 16 16 17 17 17 15 16 18 18 17 16 17 19 19 19 17 17 18 19 19 17 17 17 16 16 16 16 16 16 17 16 16
27 24 23 21 21 20 19 18 18 19 19 21 21 19 17 15 14 13 13 14 16 16 18 20 20 18 18 17 17 16 15 14 15 16 17 16 16 16 16 16 16 16 15 15 14 13 12 11 11 11 13 13 13 13 14 15 16 16 14 13 15 16 15 14 15 17 18 19 18 17 18 18 18 17 16 16 16 16 16 16 17 17 17 17 16
25 24 22 22 22 21 20 19 18 19 20 21 21 19 17 15 13 12 13 14 16 17 18 20 20 17 16 15 16 16 15 14 15 16 16 16 15 15 16 15 15 15 14 13 12 12 11 10 10 11 11 11 11 11 11 13 15 15 13 12 13 12 11 10 9 8 7 6 13 16 17 19 19 16 15 15 15 15 17 17 16 17 17 17 17
24 23 22 23 22 21 20 19 19 20 21 21 20 18 16 14 13 12 12 14 16 17 18 20 20 17 16 15 15 16 15 15 15 15 16 15 15 15 15 14 14 13 12 12 11 10 10 10 9 9 9 9 9 9 11 13 15 15 13 11 10 9 7 5 3 5 5 6 11 16 17 19 19 17 16 15 14 14 16 16 16 17 18 18 18
23 20 21 22 22 21 20 19 19 20 21 21 20 17 15 13 12 12 12 14 16 18 18 20 19 17 17 17 16 16 15 15 14 14 14 14 14 14 14 13 12 11 10 10 10 10 9 9 8 7 7 8 8 9 14 17 17 15 13 11 9 8 6 7 10 15 18 17 16 16 16 16 17 16 14 13 14 14 16 18 17 17 17 17 19
22 19 18 20 21 20 19 20 20 20 21 20 19 16 15 13 12 11 12 14 16 18 19 20 19 19 19 18 17 16 15 15 14 13 13 14 13 13 12 11 10 9 9 9 9 10 9 8 7 7 7 8 9 13 18 20 19 17 14 11 10 10 12 14 17 20 22 20 18 16 15 14 15 14 12 13 15 16 17 18 17 17 17 18 19
21 19 16 18 20 19 20 20 20 20 21 20 18 16 14 13 12 12 13 14 16 18 20 20 20 20 20 19 18 16 15 15 13 12 13 13 13 11 11 9 8 8 8 9 9 9 9 8 7 7 9 10 12 16 19 19 19 17 14 13 12 14 17 20 20 19 19 18 17 17 15 14 15 14 13 15 17 17 17 17 17 18 18 18 19
22 20 17 17 19 19 20 20 20 20 20 19 17 16 14 13 11 12 13 14 15 18 21 21 21 20 19 19 18 16 15 14 13 12 12 12 12 10 9 8 7 8 8 8 9 9 8 7 7 9 12 14 17 19 19 17 16 15 14 14 15 16 17 19 20 18 17 17 17 17 16 14 15 14 14 16 17 16 16 16 16 17 18 18 18
22 20 18 19 20 19 19 18 18 18 18 17 15 13 12 12 11 12 14 14 15 17 20 21 20 19 19 18 17 17 16 14 12 11 12 11 10 9 7 6 7 7 7 8 8 8 8 7 8 11 14 17 20 20 18 16 14 13 13 14 17 19 18 19 18 16 14 15 15 16 16 15 15 14 15 15 15 15 15 16 16 16 17 17 17
22 19 19 21 21 18 18 17 17 16 15 14 12 12 11 10 11 13 13 13 14 15 17 18 18 18 18 17 17 17 16 14 12 10 10 9 8 7 6 6 6 6 6 7 7 7 7 8 9 12 14 18 20 20 18 15 13 12 12 14 17 19 21 20 16 13 13 14 16 18 17 16 15 15 15 15 14 14 15 15 16 15 15 15 16
21 20 21 23 21 18 17 16 16 14 13 12 11 11 11 11 12 13 13 12 12 13 14 14 15 16 16 16 16 16 15 14 12 10 10 9 7 6 7 7 6 6 6 6 6 7 8 8 9 11 14 19 20 19 17 15 13 12 12 15 17 18 21 19 15 13 14 15 18 19 17 15 14 15 15 14 14 13 14 14 14 14 14 14 14
20 21 23 23 21 19 17 16 16 14 13 13 12 11 11 11 13 13 14 13 12 12 12 13 13 15 14 14 14 14 13 13 12 10 9 8 7 7 9 8 7 6 6 6 6 7 8 7 8 11 14 19 20 18 16 14 13 13 14 16 19 19 20 18 16 15 16 18 18 17 16 16 14 14 14 14 13 12 12 13 13 13 13 12 12
20 20 22 22 21 19 17 16 15 15 14 13 12 12 11 12 13 15 15 14 13 12 13 12 12 13 12 12 12 11 11 11 11 10 9 7 7 9 10 9 8 7 6 6 6 6 7 7 7 10 14 18 20 18 15 14 15 15 16 18 20 21 19 16 16 16 17 17 17 15 15 15 13 12 12 12 12 12 11 11 11 11 11 12 12
20 20 21 20 19 17 17 16 15 16 15 14 13 12 11 13 14 16 15 14 14 13 13 12 11 11 10 10 9 8 8 8 8 8 8 7 7 9 10 9 8 7 7 6 5 6 6 7 7 9 12 17 19 17 15 14 15 15 16 17 18 19 18 15 15 15 14 14 15 15 14 12 11 11 11 11 10 10 11 10 9 9 10 10 10
19 19 20 19 17 16 17 17 17 16 15 14 13 12 12 14 16 16 15 14 14 14 13 11 10 9 7 7 6 5 5 5 6 6 6 6 7 8 8 8 7 6 6 6 6 5 6 7 7 8 11 15 17 16 15 14 14 14 15 15 16 16 16 13 13 13 12 12 14 15 13 11 11 11 11 11 11 10 10 9 9 10 10 10 10
18 18 19 18 17 17 18 17 17 15 15 14 13 13 13 14 15 15 15 15 14 14 12 10 9 7 6 5 4 4 3 2 3 5 5 6 7 7 7 8 7 6 6 6 5 5 6 6 7 8 10 13 16 16 16 14 12 13 14 16 17 17 15 11 11 11 11 12 13 15 14 12 12 11 11 11 10 10 10 9 9 10 10 10 11
19 19 19 17 17 17 17 17 16 15 15 14 13 13 12 12 14 14 14 14 14 14 12 10 8 6 6 5 4 3 2 1 2 4 6 6 6 6 7 7 8 6 5 5 5 5 5 6 8 9 11 15 17 17 15 14 12 12 13 14 14 14 14 11 10 10 11 12 12 13 13 12 12 11 10 10 9 9 10 10 10 11 11 11 12
20 21 19 18 18 16 16 17 15 14 14 13 13 13 12 12 12 13 13 13 13 13 12 9 7 5 5 5 5 3 1 1 2 3 6 8 8 8 7 8 8 7 6 5 5 5 6 6 8 10 14 18 18 16 15 13 12 11 12 13 13 14 14 10 8 9 9 10 11 12 12 12 12 11 10 9 9 9 10 10 10 11 11 11 11
18 20 20 19 18 15 16 16 13 13 13 13 13 12 12 12 10 11 11 11 11 11 11 8 6 5 4 3 5 5 3 1 2 1 2 7 10 10 8 8 9 8 7 5 4 5 5 6 8 11 16 17 16 16 14 12 11 10 11 12 13 16 13 8 7 8 8 9 10 11 12 12 12 11 11 10 9 9 9 9 10 11 11 11 11
17 20 21 20 17 15 16 16 13 14 14 12 13 13 12 11 9 10 9 9 9 9 8 7 5 5 6 7 8 9 7 5 4 2 2 5 9 12 11 10 10 10 9 7 5 5 6 6 8 11 15 16 15 14 10 9 9 8 8 10 12 15 12 7 6 7 7 8 9 11 12 12 12 11 11 10 9 9 10 10 11 11 11 11 11
17 20 21 19 17 16 17 17 15 15 13 12 12 13 13 10 10 10 8 7 8 8 8 8 8 8 9 10 10 10 9 7 7 7 6 6 6 10 13 12 12 12 11 9 7 6 7 8 9 12 14 14 13 10 6 5 6 5 4 4 6 12 12 7 6 7 7 7 8 11 12 12 11 11 10 10 9 9 10 11 11 10 11 11 11
16 20 20 17 16 16 18 18 16 15 14 13 12 14 14 11 11 11 9 9 9 10 11 12 12 12 11 12 11 11 11 10 9 10 10 9 7 7 11 14 14 14 13 10 9 8 8 9 11 12 11 12 11 9 6 4 4 4 3 1 3 11 12 7 7 7 6 6 8 10 13 12 10 10 10 10 8 9 11 11 10 10 10 10 10
18 20 18 15 16 17 18 19 18 17 15 14 13 14 16 14 14 13 12 11 11 12 13 14 14 14 14 14 13 11 11 11 12 12 12 10 9 7 8 13 17 16 14 12 11 10 9 10 13 12 11 11 10 9 8 8 8 6 4 2 3 10 11 8 7 7 6 6 7 10 12 10 10 11 9 9 9 9 10 9 9 10 10 9 10
20 19 16 15 17 17 18 20 19 18 17 16 15 15 17 16 15 16 13 11 12 13 14 15 14 14 13 14 14 12 11 11 13 14 13 12 11 8 7 10 16 17 15 14 13 12 10 11 13 14 13 12 9 9 9 10 10 10 7 3 4 10 11 9 7 7 6 5 7 10 10 9 10 11 10 9 10 9 9 9 9 9 10 9 9
21 19 16 17 18 17 18 20 20 18 17 16 15 15 16 14 13 14 12 11 13 13 13 14 14 13 12 14 15 14 13 12 15 16 15 14 13 12 10 8 12 16 16 16 15 14 12 11 12 14 14 13 11 9 9 10 10 10 8 5 7 10 10 8 7 6 5 5 7 10 9 9 9 9 10 10 9 9 9 9 9 9 9 9 9
20 18 17 18 18 18 18 19 20 19 16 16 15 14 14 13 11 9 9 12 13 12 12 12 13 14 14 15 16 15 14 13 15 17 17 18 16 15 15 12 11 13 17 18 18 17 14 14 14 15 16 16 14 13 11 12 10 9 7 6 9 8 7 7 6 5 5 4 6 9 9 10 10 9 10 9 8 9 9 9 8 8 8 8 8
18 18 17 16 16 17 19 19 19 19 17 15 14 12 11 12 10 8 8 11 12 12 11 10 11 13 14 15 16 15 15 14 14 16 18 20 18 16 16 15 14 16 19 19 19 19 17 15 16 18 19 18 16 14 13 12 11 10 7 9 12 8 7 7 5 5 5 5 6 8 8 10 13 12 11 9 8 9 9 9 8 8 8 8 8
17 17 15 15 15 18 20 20 18 18 17 15 12 11 10 10 10 9 9 10 12 11 11 10 11 12 11 13 15 15 15 15 14 14 17 19 18 17 16 15 16 19 21 20 18 19 18 16 18 20 21 20 17 15 14 11 10 11 9 12 14 11 9 7 6 5 5 6 7 7 7 9 13 13 11 10 9 9 8 8 9 9 9 8 8
17 15 15 17 16 17 19 18 17 16 15 14 11 9 10 9 8 9 10 10 10 10 10 11 11 10 9 10 14 14 15 15 14 14 16 17 17 17 17 18 20 21 22 21 20 20 20 18 20 22 22 20 18 16 15 12 11 11 11 14 14 13 12 9 7 7 7 8 7 7 6 8 11 12 12 12 10 9 9 9 9 10 9 8 8
18 16 17 18 16 16 18 16 15 14 13 12 10 9 9 7 6 7 9 10 9 8 9 9 9 9 8 9 13 14 14 15 15 15 15 15 15 16 19 22 23 23 22 21 21 21 22 21 20 22 23 20 18 16 15 13 12 10 11 14 13 13 13 10 9 9 9 9 8 7 6 7 10 11 12 13 12 10 10 9 9 10 9 8 9
20 18 17 17 15 15 16 16 14 14 13 11 10 9 8 7 7 8 9 9 8 7 7 7 8 9 8 8 10 12 13 16 15 15 15 15 15 16 18 20 21 22 22 21 21 21 22 21 19 22 24 20 17 16 15 15 13 10 10 13 12 13 11 11 11 10 10 10 9 9 7 7 9 10 11 12 12 10 11 10 10 11 10 9 10
19 19 18 16 14 12 13 15 15 14 13 12 11 10 8 8 8 8 8 8 7 6 6 7 7 8 8 8 9 11 13 16 16 16 16 15 14 15 16 16 17 20 22 22 22 21 20 21 19 22 24 22 18 16 16 15 13 10 9 11 12 13 11 11 13 12 12 12 11 10 8 8 9 9 9 10 11 10 11 12 10 10 11 10 10
18 20 20 16 13 11 10 13 13 13 12 11 10 9 8 7 7 6 6 6 6 6 6 7 8 9 10 11 11 12 14 15 17 17 18 16 15 15 15 15 16 18 20 21 21 21 21 20 20 18 20 20 19 18 16 13 12 11 10 11 13 14 13 12 13 12 13 12 11 10 10 9 10 9 8 9 10 10 13 13 11 11 11 11 11
17 19 20 18 15 13 11 11 11 11 11 10 9 9 8 7 5 5 5 6 7 6 6 7 9 11 13 13 13 13 13 15 17 19 19 18 16 16 15 15 16 16 18 20 20 21 22 20 20 17 15 15 16 18 17 15 14 11 11 13 14 14 13 12 13 14 14 12 11 12 12 11 11 10 8 8 9 11 14 14 12 12 11 11 11
16 17 18 18 16 15 13 11 11 11 10 10 9 9 8 7 6 5 5 7 8 7 6 9 11 13 14 14 14 13 13 15 16 19 20 20 18 17 16 15 16 16 16 18 19 20 21 19 19 18 17 17 16 15 16 17 16 12 10 13 14 14 13 13 14 14 13 12 12 14 14 13 14 12 10 9 9 11 14 13 12 14 15 13 11
16 15 16 17 16 15 14 13 12 12 11 10 9 9 7 7 6 5 5 7 9 9 9 11 13 14 14 14 14 14 14 15 16 17 20 21 20 18 17 16 17 16 16 17 19 20 20 19 20 20 18 20 20 15 13 15 16 13 11 11 13 14 14 14 14 13 12 12 12 14 14 15 16 14 12 11 10 11 13 13 13 15 17 15 12
16 13 13 14 14 13 12 12 12 11 10 9 8 8 7 7 6 6 6 7 8 9 10 12 13 14 15 15 16 16 16 17 17 16 18 20 20 18 18 17 18 18 16 16 18 19 20 19 20 20 18 19 21 18 13 11 10 9 10 10 10 12 13 14 13 13 12 11 12 13 14 16 16 15 14 13 11 11 13 13 14 15 16 15 13
15 13 13 13 12 11 10 11 11 11 10 8 7 7 6 5 5 5 5 6 7 7 8 10 11 13 14 15 16 16 17 18 18 18 17 19 19 19 19 19 19 19 17 17 18 19 19 19 19 18 17 19 21 20 16 12 7 3 4 5 3 5 9 12 13 13 13 12 12 13 15 16 15 15 15 15 15 13 14 15 15 15 14 14 14
16 15 14 13 12 10 9 9 9 9 8 9 8 7 6 5 4 5 5 6 6 7 8 10 12 13 14 15 16 17 18 19 18 18 18 19 19 19 19 19 19 19 18 18 20 20 20 19 19 18 16 18 20 19 16 13 12 7 1 1 2 3 4 8 12 14 14 13 13 14 16 16 15 15 16 16 17 16 15 16 16 15 14 13 14
16 15 14 14 12 10 8 7 5 4 4 5 4 4 3 3 4 4 5 6 6 7 9 11 12 14 15 17 18 18 18 19 19 20 20 20 20 20 19 19 19 19 19 18 19 21 21 19 19 19 17 18 19 18 16 15 18 15 5 1 2 3 2 5 11 14 15 15 13 14 16 17 15 16 17 17 18 17 17 18 17 15 15 14 14
15 14 13 12 11 9 8 6 5 4 4 4 3 3 2 1 2 2 3 6 8 9 11 13 14 14 16 17 18 18 17 16 18 19 21 21 21 21 21 20 19 19 20 19 18 20 21 21 20 19 20 20 19 18 16 17 20 21 15 6 2 2 2 5 8 10 15 17 15 14 15 17 18 18 18 18 18 18 19 20 18 17 16 16 15
14 13 13 11 9 8 7 6 6 6 6 6 5 6 5 5 5 6 6 8 11 13 14 14 14 14 14 15 15 17 16 15 15 16 18 21 22 21 21 20 20 20 21 20 19 19 20 21 20 20 21 21 20 18 16 17 20 23 23 15 7 4 3 5 6 3 9 15 16 15 15 17 20 19 19 18 18 19 20 22 21 19 18 17 16
15 14 14 13 11 10 8 8 8 8 8 6 5 6 6 6 6 6 7 9 11 13 12 11 11 11 11 11 12 14 15 15 15 15 15 18 21 21 20 20 21 21 22 22 22 21 21 21 21 21 21 21 22 21 19 19 19 21 25 22 15 9 7 8 7 3 4 8 12 15 16 18 20 19 19 20 19 18 20 22 22 21 20 18 17
16 16 16 15 14 14 13 12 11 11 10 9 7 8 9 8 7 6 6 7 9 10 10 9 10 10 9 10 11 13 13 14 15 15 15 16 19 20 20 20 21 22 22 23 24 23 22 21 22 22 21 22 24 24 23 21 20 21 24 25 22 15 11 11 10 8 4 3 6 10 14 18 19 19 20 21 20 19 20 21 22 22 21 19 18
17 18 16 15 14 15 15 13 13 12 11 11 10 10 11 11 11 11 11 11 10 11 11 11 11 10 10 11 11 12 12 12 13 13 13 15 17 18 19 20 20 21 22 22 23 23 22 22 23 24 23 24 25 26 26 25 25 24 23 24 24 20 17 15 12 10 5 4 5 4 9 14 15 19 22 21 21 20 20 21 21 22 22 20 19
16 16 15 14 14 14 15 14 14 13 12 12 12 12 12 12 13 14 14 14 15 15 14 14 13 13 12 12 11 11 11 11 10 10 11 12 14 16 17 18 18 20 22 23 22 21 22 22 23 25 26 26 26 26 26 27 27 26 25 25 23 20 18 13 11 11 6 4 5 4 10 12 10 16 22 22 22 21 21 21 21 22 23 21 19
15 15 15 14 14 14 15 14 14 13 13 13 13 13 13 13 14 15 15 15 16 16 17 17 17 17 16 14 12 10 9 9 10 9 10 10 12 14 15 16 17 18 21 22 22 20 21 22 23 24 26 27 27 27 27 27 27 26 25 25 24 23 20 14 13 15 10 6 5 4 10 15 13 15 21 23 24 23 22 22 21 22 22 20 19
Wind_Direction
140 142 140 148 153 151 148 146 149 150 149 147 143 140 136 134 130 122 109 101 100 101 100 97 102 111 111 107 103 98 95 95 94 92 91 90 90 90 92 93 96 98 98 97 97 97 96 97 97 97 96 98 99 99 102 104 102 99 97 96 95 95 96 96 96 96 94 91 88 84 83 83 83 82 81 80 77 76 79 79 79 77 75 75 75
142 139 139 146 152 151 150 148 149 151 150 149 145 144 141 139 135 124 113 106 106 105 104 103 105 112 110 106 102 99 97 95 95 94 93 93 94 95 96 97 99 100 99 98 97 97 96 97 97 97 98 101 99 98 100 103 103 102 100 99 97 96 96 98 98 96 95 93 91 88 84 82 82 81 79 78 78 78 79 79 80 78 76 75 75
142 138 138 144 150 151 152 149 149 153 151 151 149 148 146 144 138 126 116 111 111 109 106 104 107 112 110 106 103 101 98 94 94 95 95 97 98 99 99 100 100 100 100 99 98 97 96 96 96 96 99 103 103 102 104 105 104 103 103 102 100 99 100 101 99 95 93 91 90 90 86 82 79 79 79 79 80 81 81 81 82 82 82 80 79
139 137 136 139 146 151 152 149 152 155 154 153 153 153 152 147 139 128 118 115 116 114 109 105 104 108 108 106 104 101 97 96 98 99 100 101 101 101 101 102 102 101 101 99 98 96 95 94 96 98 102 105 108 109 108 107 104 102 103 103 104 105 106 106 101 95 93 89 85 85 87 85 81 78 78 79 79 79 79 80 84 85 85 85 83
136 136 136 139 145 150 152 152 156 157 157 156 156 157 154 148 139 128 118 120 121 118 114 107 104 107 107 106 105 101 99 100 102 103 104 103 104 104 103 102 102 101 99 97 95 94 94 95 99 101 102 102 107 112 113 112 107 105 105 105 107 108 110 112 105 97 93 87 82 81 83 86 86 82 81 82 81 79 76 77 83 87 86 85 84
134 135 136 141 145 151 154 155 158 159 159 158 159 158 154 148 140 129 120 124 126 122 118 112 107 107 108 107 107 104 102 103 104 105 105 104 106 106 104 102 101 100 98 97 95 95 94 95 100 102 99 97 102 110 117 117 112 112 114 111 110 111 113 115 112 108 102 88 85 88 86 88 89 87 87 87 86 85 81 77 80 84 84 83 83
133 133 139 143 147 153 158 158 159 159 160 161 161 158 152 147 140 130 123 128 130 126 123 118 113 111 110 109 111 110 106 104 105 106 106 106 107 107 106 103 100 98 97 97 95 93 91 90 92 94 94 96 99 102 113 121 122 122 122 119 118 117 115 122 122 124 136 101 91 96 94 94 94 93 91 91 90 89 85 82 81 82 83 83 83
132 136 143 145 150 156 160 160 158 159 160 162 160 157 151 147 141 133 127 133 136 132 130 125 121 119 118 115 115 115 111 108 106 107 108 109 111 111 108 104 102 103 104 102 96 93 91 90 86 86 89 95 96 93 105 120 128 130 128 127 126 125 121 118 82 72 125 139 107 99 95 94 97 98 94 92 91 91 89 86 86 85 85 83 83
135 141 145 147 152 156 160 159 157 158 160 161 159 156 152 150 146 140 135 139 143 142 139 135 130 128 128 126 123 121 117 113 111 111 112 114 116 113 108 106 107 108 111 107 98 95 93 93 91 90 92 93 92 97 110 121 130 132 130 127 120 115 91 67 77 93 107 115 108 100 97 94 93 96 96 92 88 91 91 89 89 90 90 87 86
142 143 144 149 152 157 158 156 156 157 158 159 158 158 157 158 155 149 145 146 149 149 147 143 138 135 136 134 131 127 123 120 119 118 117 117 117 113 109 106 105 107 109 104 94 94 96 98 97 93 92 92 99 111 119 125 130 130 124 112 95 79 67 76 96 105 110 111 106 102 102 99 93 92 94 90 88 91 91 89 89 92 92 89 89
144 140 141 148 152 155 155 154 155 155 158 161 164 166 166 166 164 158 153 151 152 153 152 148 143 141 141 139 135 131 129 129 129 125 121 120 118 114 107 99 102 109 109 103 98 98 102 106 104 99 95 102 116 122 125 129 130 126 116 101 86 76 78 92 104 104 105 104 100 98 100 99 93 90 90 89 90 92 92 93 90 89 89 88 88
142 141 140 149 153 153 153 155 155 157 162 166 170 170 171 170 167 161 153 150 149 154 155 152 148 146 146 143 141 138 138 138 137 131 126 123 120 118 106 96 102 109 108 105 102 98 98 100 99 97 101 116 127 128 130 133 130 123 112 96 83 79 86 101 108 107 104 102 99 98 98 97 95 93 90 90 91 93 94 97 94 91 90 90 87
141 143 143 150 151 150 150 152 155 159 163 168 171 167 170 168 162 154 145 143 140 148 156 156 152 151 150 148 147 146 145 143 142 137 132 129 127 127 111 102 109 110 112 111 105 95 91 88 90 94 106 126 133 133 134 134 130 120 103 87 81 86 97 110 112 110 106 104 101 97 97 96 96 96 93 92 92 92 94 97 96 95 94 92 89
142 141 143 147 144 145 147 149 154 157 162 166 168 164 165 159 151 145 139 138 134 140 152 159 159 155 154 152 152 151 151 148 146 146 142 140 142 143 129 120 121 119 120 119 112 94 86 81 88 97 113 133 137 136 136 133 126 108 87 78 84 97 107 113 114 110 104 103 101 97 98 98 100 100 96 94 92 92 93 95 96 96 96 94 92
139 138 141 143 141 145 149 151 156 157 161 164 165 161 157 149 146 142 136 137 136 138 144 154 163 162 158 157 157 154 154 155 155 156 152 152 159 157 143 140 136 132 130 128 118 96 84 80 88 102 121 138 140 138 136 127 113 95 82 77 85 105 117 119 116 107 102 102 103 102 101 101 103 103 100 97 94 94 94 94 94 93 92 90 89
132 137 140 141 141 148 153 157 162 162 163 163 163 159 153 148 149 145 140 144 146 144 141 142 155 162 163 161 159 159 159 160 163 165 163 166 171 156 145 149 147 139 136 132 123 103 89 83 91 107 128 142 141 139 134 120 106 94 86 79 82 105 122 122 112 104 103 105 107 108 107 105 101 101 102 100 97 96 96 95 93 90 87 84 84
128 135 138 138 141 147 154 158 162 163 164 163 161 160 156 152 154 152 149 153 153 149 148 142 146 157 165 165 161 162 162 164 168 172 175 178 172 152 147 155 152 142 140 137 128 113 97 91 96 110 132 145 144 139 132 117 107 99 90 84 86 102 120 121 112 108 107 107 109 111 108 106 102 99 102 104 101 96 95 93 92 88 85 85 81
126 133 133 136 142 148 156 158 161 163 162 161 161 163 161 156 157 156 156 158 157 154 154 150 148 155 163 166 168 167 164 169 172 177 186 188 175 156 153 162 157 147 143 141 136 121 104 98 99 111 133 147 146 139 130 119 111 104 96 92 90 103 121 125 119 116 113 111 112 110 103 101 100 97 100 103 101 96 93 90 89 85 83 85 79
128 132 131 137 147 154 159 160 163 164 162 161 163 166 165 163 160 159 161 161 161 161 158 154 151 154 158 160 166 170 171 179 187 195 201 203 189 167 165 171 164 156 150 144 143 130 112 103 104 111 130 148 149 141 131 122 115 107 99 95 94 110 126 128 124 123 117 117 119 114 105 103 101 98 100 100 98 97 95 88 85 85 84 83 80
133 134 138 151 158 160 161 160 162 164 165 165 167 167 165 167 165 161 163 163 165 165 161 157 153 151 147 146 144 150 168 187 209 218 221 225 209 187 179 182 179 170 161 153 149 139 122 108 111 113 124 143 147 140 132 122 114 108 103 97 97 114 131 132 124 119 113 116 123 119 113 110 105 100 101 102 102 100 95 87 84 88 90 87 85
143 147 154 163 161 160 158 156 161 166 168 167 168 167 163 169 168 162 162 165 168 167 164 157 152 144 135 145 146 148 178 199 217 225 235 240 229 214 201 197 197 191 181 170 160 149 134 117 114 116 125 135 137 134 126 118 110 106 106 96 95 119 133 130 117 106 106 113 122 122 117 113 109 106 104 105 105 104 101 95 89 88 92 91 89
155 157 158 160 159 159 154 157 163 164 163 163 166 167 166 171 169 162 163 167 169 171 169 161 151 140 128 144 146 151 197 290 229 221 229 233 235 231 220 214 211 208 205 190 174 161 145 131 120 121 132 134 132 128 120 116 111 108 110 96 99 132 138 128 115 100 100 109 117 122 119 115 114 112 108 105 103 105 106 103 97 93 96 96 96
155 150 151 160 163 155 153 163 161 157 159 158 162 165 165 166 165 160 159 165 170 176 174 162 139 130 134 162 168 176 184 184 213 248 248 227 228 233 232 228 226 224 222 214 193 175 160 146 131 131 139 138 131 124 115 109 111 112 116 103 107 140 147 133 118 101 98 108 115 120 118 115 114 112 110 106 102 102 100 100 102 101 101 97 98
149 147 155 159 158 150 157 168 160 156 159 156 157 158 156 155 154 152 149 157 171 179 172 155 138 150 175 194 195 196 192 170 169 191 270 238 222 230 235 233 233 231 229 227 211 191 184 169 149 145 146 145 139 131 119 107 111 110 119 114 115 143 151 139 123 103 100 106 113 120 117 115 115 114 112 109 106 101 98 101 106 106 105 100 98
151 154 158 151 150 155 161 166 160 155 154 155 155 150 148 147 142 138 136 149 168 172 170 169 178 192 199 203 203 212 211 182 164 178 222 251 238 235 238 231 226 228 232 230 221 210 197 189 171 159 156 157 157 157 151 125 126 119 135 131 126 158 162 150 136 115 107 104 116 126 122 122 122 120 118 113 110 106 104 108 109 110 110 108 105
153 159 159 150 152 158 157 158 156 153 153 158 158 150 149 149 143 140 145 159 171 172 178 185 191 200 209 212 209 219 217 191 179 179 197 235 251 252 246 231 220 220 227 231 229 224 211 202 190 179 177 180 184 192 197 201 181 145 154 168 145 171 172 156 141 121 109 109 125 131 128 132 127 122 124 120 118 111 111 114 113 114 114 111 110
156 164 160 149 154 160 157 156 156 156 158 160 161 160 157 153 150 155 162 169 178 182 190 196 199 202 209 218 217 221 219 198 193 188 187 214 234 252 256 235 222 218 219 228 235 231 226 218 208 204 203 204 211 219 229 242 225 186 168 178 173 180 174 157 144 122 108 110 130 135 134 139 132 130 136 129 127 120 115 118 116 116 118 114 113
159 164 159 153 159 164 159 158 162 165 166 165 167 171 169 159 157 166 167 173 190 193 197 202 206 209 211 220 223 222 219 206 200 196 192 207 224 234 250 241 227 222 216 222 233 233 236 233 225 224 223 224 231 244 253 247 224 199 184 187 188 177 165 152 142 125 109 110 132 141 140 137 133 138 145 136 133 132 122 122 119 117 119 118 118
161 162 158 160 163 164 164 165 170 173 173 172 174 177 176 170 170 177 171 178 201 207 208 209 211 219 221 221 224 221 218 211 202 200 200 210 219 219 222 227 226 227 221 221 227 230 237 239 236 240 241 237 242 264 257 233 221 202 184 165 160 160 156 150 145 135 116 114 134 149 149 138 134 135 140 141 140 137 127 126 129 128 126 125 125
165 167 159 159 163 166 171 175 178 180 177 175 180 182 178 179 182 183 178 185 204 218 223 220 217 223 223 221 223 221 221 214 202 203 207 212 218 215 210 207 215 227 227 226 225 225 232 238 239 245 249 247 255 266 243 224 220 201 188 177 162 152 155 156 157 154 134 127 138 152 157 149 149 145 147 154 149 140 131 129 134 137 137 139 137
167 169 161 159 163 169 176 181 183 180 176 177 183 186 183 187 189 182 190 204 212 220 227 225 221 223 224 223 220 216 217 215 210 209 209 212 218 220 211 203 208 219 226 229 229 227 229 237 242 243 246 248 259 256 231 222 211 201 212 198 177 155 152 161 169 171 157 152 146 150 156 157 161 163 164 161 148 143 141 140 140 142 143 141 140
162 162 160 157 158 169 179 184 184 179 176 179 180 182 185 191 195 194 203 216 217 220 229 228 223 223 224 224 218 213 211 211 214 212 209 213 219 223 216 206 208 214 220 225 231 231 229 240 250 247 245 249 255 242 223 224 216 214 220 197 183 169 161 166 173 180 181 172 159 153 156 163 168 170 165 155 149 149 151 151 144 145 145 140 141
154 152 151 150 153 168 178 180 182 182 180 181 182 184 189 193 196 198 203 209 210 214 219 218 217 218 222 224 217 213 211 210 213 210 209 214 219 222 216 209 213 217 218 220 226 224 223 241 256 251 245 250 253 236 222 225 225 228 215 190 182 175 169 168 175 191 193 182 173 165 160 169 176 173 160 155 161 160 159 161 147 148 150 144 146
149 150 148 151 159 170 174 174 177 183 183 184 188 189 193 195 188 186 193 201 206 203 203 206 209 211 219 221 214 213 214 214 215 213 211 214 217 220 213 211 217 221 221 222 225 220 218 233 254 253 242 242 247 233 223 225 224 231 209 186 179 175 174 173 178 195 198 189 184 179 169 168 176 177 165 164 175 171 168 172 157 155 156 149 151
146 150 152 155 164 171 173 173 175 177 179 187 190 182 179 183 183 184 190 203 211 209 211 213 210 213 218 218 214 216 218 220 223 221 217 215 216 217 216 218 219 222 225 226 226 226 223 224 242 257 246 238 243 232 223 225 224 223 196 181 181 178 176 178 181 192 203 199 191 188 182 172 175 179 175 176 185 180 172 173 166 163 164 160 158
143 148 153 157 162 167 170 173 175 173 176 187 186 174 169 177 182 184 195 212 219 219 227 232 228 227 230 232 228 226 226 229 231 231 229 227 224 223 224 226 223 223 227 227 227 230 226 219 229 255 253 241 242 235 224 223 219 213 195 187 189 182 174 177 182 192 204 204 197 194 189 184 182 180 181 186 193 195 183 176 172 167 167 168 163
140 144 148 152 155 157 163 167 169 166 167 175 176 171 173 180 178 179 204 226 230 231 242 249 250 251 251 249 244 240 238 235 235 237 239 237 235 234 232 231 227 224 226 227 229 229 224 220 221 239 252 244 243 240 233 232 227 219 213 202 190 181 176 175 181 191 198 197 195 194 192 192 192 187 186 190 196 198 190 186 180 168 168 173 167
138 141 143 146 150 153 158 160 158 155 161 169 173 177 177 178 177 181 210 231 239 242 245 249 253 256 257 257 258 254 246 238 236 239 243 241 237 236 235 231 229 228 228 226 228 228 226 224 221 228 242 242 248 249 239 236 236 230 215 196 183 177 177 179 183 192 197 194 191 193 194 198 201 199 200 198 194 189 189 192 189 174 169 178 178
137 139 140 140 145 152 155 157 160 164 171 177 180 184 182 184 189 191 206 221 235 242 243 246 249 253 255 257 260 259 251 242 239 241 245 245 240 237 236 232 233 234 230 225 224 226 225 222 223 231 235 230 238 250 244 237 233 229 212 189 180 179 178 181 188 195 201 198 192 190 192 199 203 206 213 212 198 192 194 194 191 182 175 182 187
132 136 139 140 144 151 158 163 170 177 181 182 185 191 191 194 200 210 216 222 235 241 241 247 251 257 263 265 264 263 259 254 251 249 248 248 244 241 239 234 235 236 230 226 225 226 226 223 223 230 236 232 230 237 252 246 226 210 199 183 177 179 181 187 193 195 197 196 195 192 190 197 203 205 212 215 206 198 199 194 188 183 178 183 186
121 127 132 139 142 147 157 164 170 178 181 181 188 194 195 201 212 227 237 240 248 249 246 251 258 266 273 275 274 273 271 267 265 261 256 253 248 244 242 238 235 234 233 231 230 232 232 228 224 228 236 237 229 230 242 238 211 189 179 175 173 176 182 189 195 198 194 192 197 196 195 197 199 200 202 209 210 200 196 191 183 181 178 178 179
115 118 118 125 131 138 149 159 165 171 173 175 184 190 188 204 230 244 252 257 264 270 268 269 276 281 280 278 278 280 279 276 272 268 265 261 255 248 243 240 237 236 237 236 234 237 238 231 226 227 233 234 229 231 233 216 202 211 168 158 177 200 196 190 193 201 198 192 197 199 199 198 195 194 196 204 210 201 193 190 184 181 179 176 178
104 106 107 112 118 121 124 140 155 162 170 179 186 188 185 202 237 250 258 269 278 283 282 280 282 286 285 279 278 279 279 278 274 269 265 262 258 252 244 241 241 241 240 238 235 236 238 234 228 229 233 231 228 230 229 206 195 215 229 139 200 233 227 207 203 207 203 197 199 202 202 201 199 194 194 200 207 206 195 190 189 186 183 183 185
93 95 99 104 107 109 109 118 129 128 148 167 168 163 172 205 239 249 262 282 295 292 282 275 274 277 276 273 274 276 277 274 272 269 266 261 255 252 248 243 242 243 243 240 238 235 235 234 230 231 230 225 224 223 223 212 197 191 187 239 187 174 235 220 210 212 209 202 200 203 203 202 202 197 197 199 203 209 202 195 197 197 194 193 194
87 85 86 90 93 98 105 104 100 91 78 65 60 65 48 3 319 308 301 294 295 292 282 276 274 270 268 270 273 276 275 273 272 268 264 260 255 251 247 244 244 246 246 243 239 237 236 235 233 233 230 224 221 216 218 220 208 194 189 199 157 157 237 192 191 213 212 209 205 200 201 201 200 199 201 201 200 208 210 203 202 205 206 201 200
83 83 80 81 81 80 82 78 76 72 56 36 21 16 4 355 346 333 318 298 287 282 280 281 283 278 273 274 277 277 274 275 279 273 263 256 254 251 244 243 244 243 245 244 241 238 236 235 234 233 233 230 222 215 215 216 215 206 199 202 192 190 226 168 156 209 211 213 213 203 201 202 202 202 203 203 203 207 213 210 208 210 211 206 205
76 82 78 75 73 68 70 70 67 58 49 42 27 19 12 0 341 322 308 295 289 288 289 292 292 289 285 283 283 282 277 277 282 281 270 257 253 253 247 243 242 241 243 244 242 240 237 236 236 234 234 230 221 215 215 209 210 213 207 208 211 211 222 197 171 161 187 211 215 208 206 205 205 206 203 205 207 209 212 212 212 214 213 208 207
71 73 68 66 67 65 65 67 65 56 48 49 46 42 38 32 18 359 349 331 318 318 320 319 313 305 298 294 292 289 283 282 283 279 271 261 256 256 251 246 243 242 243 242 241 240 239 238 236 235 233 227 222 218 217 208 204 210 210 212 217 214 221 218 193 173 159 179 199 205 208 209 213 210 202 203 209 211 210 209 210 211 211 207 205
68 68 65 63 64 62 58 54 54 49 42 42 42 43 44 44 40 30 24 16 5 355 346 342 338 328 317 307 299 294 289 288 289 285 275 265 261 259 256 252 246 243 243 242 241 240 241 241 238 238 234 228 226 223 220 215 211 208 204 208 213 212 221 230 210 189 176 165 177 191 198 204 217 217 209 205 208 212 210 207 206 206 208 207 205
65 65 63 59 59 58 51 44 42 42 37 36 37 39 40 41 39 34 28 20 13 8 1 358 354 345 337 328 317 307 299 296 296 295 291 281 275 270 264 259 253 248 247 245 243 243 245 247 245 243 239 232 229 226 223 222 220 213 203 200 203 205 214 223 210 201 196 176 179 187 190 191 204 215 214 210 207 210 211 206 203 204 208 206 204
62 60 58 55 54 52 49 44 38 37 37 34 34 35 35 36 35 31 27 21 15 12 7 4 1 356 347 339 335 325 312 315 314 305 303 301 291 281 271 266 263 257 254 253 251 250 250 252 253 250 244 238 232 229 226 224 222 218 211 206 206 209 212 208 201 200 194 180 175 177 194 197 199 205 210 210 207 206 208 208 206 207 210 207 204